AD8BV Weather Reports


Display with metric or nautical units.
time (UTC)temp
F
wind
direction
speed
MPH
gust
MPH
rain 1hr
in
rain 24hr
in
rain mn
in
humidity
%
barometer
mb
20260510004320 63 342 1.0 3.0 0.00 0.00 0.00 52 1006.9
20260510003818 63 356 5.0 6.0 0.00 0.00 0.00 50 1006.7
20260510003315 64 285 1.0 2.0 0.00 0.00 0.00 50 1006.4
20260510002813 65 268 0.0 0.0 0.00 0.00 0.00 50 1006.3
20260510002311 65 217 2.0 3.0 0.00 0.00 0.00 49 1006.2
20260510001807 65 284 1.0 1.0 0.00 0.00 0.00 51 1005.8
20260510001305 65 277 1.0 1.0 0.00 0.00 0.00 52 1005.9
20260510000801 65 265 1.0 1.0 0.00 0.00 0.00 52 1006.1
20260510000259 65 273 0.0 1.0 0.00 0.00 0.00 54 1005.8
20260509235756 66 281 1.0 1.0 0.00 0.00 0.00 53 1005.6
20260509235252 66 263 0.0 0.0 0.00 0.00 0.00 51 1005.6
20260509234747 66 252 1.0 1.0 0.00 0.00 0.00 50 1005.4
20260509234245 66 273 1.0 1.0 0.00 0.00 0.00 51 1005.4
20260509233743 67 268 1.0 1.0 0.00 0.00 0.00 51 1005.5
20260509233240 67 226 1.0 1.0 0.00 0.00 0.00 50 1005.4
20260509232736 67 267 0.0 0.0 0.00 0.00 0.00 51 1005.2
20260509232233 67 269 1.0 1.0 0.00 0.00 0.00 50 1005.4
20260509231730 67 298 4.0 7.0 0.00 0.00 0.00 48 1005.3
20260509231227 67 286 1.0 2.0 0.00 0.00 0.00 49 1005.2
20260509230725 67 330 1.0 1.0 0.00 0.00 0.00 49 1005.4
20260509230221 67 303 5.0 6.0 0.00 0.00 0.00 48 1005.4
20260509225716 68 274 2.0 3.0 0.00 0.00 0.00 48 1005.3
20260509225212 68 262 2.0 2.0 0.00 0.00 0.00 45 1005.2
20260509224708 68 288 0.0 0.0 0.00 0.00 0.00 48 1005.3
20260509224205 68 324 2.0 2.0 0.00 0.00 0.00 44 1005.2
20260509223702 68 294 2.0 2.0 0.00 0.00 0.00 44 1005.2
20260509223159 67 285 1.0 1.0 0.00 0.00 0.00 46 1005.4
20260509222657 68 304 1.0 1.0 0.00 0.00 0.00 45 1005.5
20260509222152 68 277 1.0 1.0 0.00 0.00 0.00 44 1005.3
20260509221648 68 203 2.0 3.0 0.00 0.00 0.00 43 1005.0
20260509221144 68 288 3.0 3.0 0.00 0.00 0.00 43 1005.1
20260509220640 68 273 4.0 6.0 0.00 0.00 0.00 42 1005.0
20260509220136 68 229 3.0 3.0 0.00 0.00 0.00 41 1005.2
20260509215632 69 264 7.0 11.0 0.00 0.00 0.00 41 1005.3
20260509215129 68 298 1.0 1.0 0.00 0.00 0.00 44 1005.3
20260509214626 69 342 7.0 11.0 0.00 0.00 0.00 41 1005.0
20260509214123 69 223 3.0 5.0 0.00 0.00 0.00 40 1005.3
20260509213619 70 277 1.0 1.0 0.00 0.00 0.00 40 1005.2
20260509213115 70 329 3.0 6.0 0.00 0.00 0.00 39 1005.0
20260509212613 70 57 4.0 6.0 0.00 0.00 0.00 39 1005.1
20260509212110 69 326 3.0 6.0 0.00 0.00 0.00 39 1004.9
20260509211606 68 253 2.0 2.0 0.00 0.00 0.00 41 1005.0
20260509211103 67 263 1.0 1.0 0.00 0.00 0.00 39 1005.0
20260509210559 67 250 2.0 2.0 0.00 0.00 0.00 39 1005.0
20260509210056 68 126 2.0 5.0 0.00 0.00 0.00 40 1005.0
20260509205556 69 250 3.0 3.0 0.00 0.00 0.00 39 1005.1
20260509205051 70 282 1.0 2.0 0.00 0.00 0.00 37 1005.2
20260509204548 70 250 5.0 7.0 0.00 0.00 0.00 38 1005.1
20260509204044 70 269 5.0 8.0 0.00 0.00 0.00 40 1005.1
20260509203540 70 276 0.0 1.0 0.00 0.00 0.00 40 1004.9
20260509203038 69 276 0.0 1.0 0.00 0.00 0.00 45 1005.1
20260509202533 68 314 2.0 3.0 0.00 0.00 0.00 43 1005.0
20260509202029 70 30 2.0 5.0 0.00 0.00 0.00 43 1005.0
20260509201523 70 274 3.0 3.0 0.00 0.00 0.00 42 1004.9
20260509201016 70 357 1.0 2.0 0.00 0.00 0.00 42 1005.2
20260509200515 70 306 1.0 2.0 0.00 0.00 0.00 42 1005.2
20260509200013 68 268 1.0 1.0 0.00 0.00 0.00 47 1004.9
20260509195508 68 199 3.0 3.0 0.00 0.00 0.00 41 1004.9
20260509195008 67 246 2.0 2.0 0.00 0.00 0.00 47 1005.4
20260509194504 68 286 3.0 5.0 0.00 0.00 0.00 47 1005.4
20260509194001 67 5 1.0 2.0 0.00 0.00 0.00 46 1005.4
20260509193500 66 290 2.0 2.0 0.00 0.00 0.00 50 1006.0
20260509192957 65 267 2.0 2.0 0.00 0.00 0.00 48 1005.9
20260509192454 65 195 2.0 5.0 0.00 0.00 0.00 48 1005.8
20260509191949 65 275 4.0 6.0 0.00 0.00 0.00 46 1005.9
20260509191444 66 275 3.0 3.0 0.00 0.00 0.00 50 1005.8
20260509190940 65 250 2.0 2.0 0.00 0.00 0.00 48 1005.8
20260509190437 65 260 2.0 2.0 0.00 0.00 0.00 46 1005.7
20260509185935 66 221 5.0 8.0 0.00 0.00 0.00 45 1005.6
20260509185432 66 265 4.0 6.0 0.00 0.00 0.00 50 1005.5
20260509184929 67 277 2.0 3.0 0.00 0.00 0.00 47 1005.4
20260509184427 67 246 5.0 6.0 0.00 0.00 0.00 50 1005.5
20260509183923 66 298 3.0 3.0 0.00 0.00 0.00 49 1005.2
20260509183417 67 302 5.0 7.0 0.00 0.00 0.00 53 1005.2
20260509182914 67 11 4.0 6.0 0.00 0.00 0.00 54 1005.2
20260509182411 67 121 4.0 6.0 0.00 0.00 0.00 56 1005.1
20260509181908 68 279 3.0 3.0 0.00 0.00 0.00 56 1005.0
20260509181405 68 176 2.0 3.0 0.00 0.00 0.00 55 1005.2
20260509180903 67 267 2.0 2.0 0.00 0.00 0.00 57 1004.8
20260509180358 66 358 4.0 6.0 0.00 0.00 0.00 60 1004.9
20260509175855 67 296 3.0 3.0 0.00 0.00 0.00 61 1004.9
20260509175351 67 258 2.0 3.0 0.00 0.00 0.00 59 1004.6
20260509174848 68 275 3.0 3.0 0.00 0.00 0.00 57 1004.4
20260509174344 67 253 2.0 2.0 0.00 0.00 0.00 56 1004.6
20260509173839 67 155 4.0 9.0 0.00 0.00 0.00 56 1004.2
20260509173335 68 316 5.0 7.0 0.00 0.00 0.00 55 1004.4
20260509172831 69 230 5.0 6.0 0.00 0.00 0.00 54 1004.1
20260509172328 69 226 3.0 5.0 0.00 0.00 0.00 57 1004.4
20260509171824 70 162 3.0 5.0 0.00 0.00 0.00 55 1004.6
20260509171320 69 308 1.0 2.0 0.00 0.00 0.00 59 1004.3
20260509170817 68 186 3.0 3.0 0.00 0.00 0.00 57 1004.7
20260509170312 68 293 2.0 3.0 0.00 0.00 0.00 60 1004.8
20260509165812 69 270 3.0 6.0 0.00 0.00 0.00 55 1004.4
20260509165307 69 241 2.0 2.0 0.00 0.00 0.00 59 1004.6
20260509164803 69 216 4.0 7.0 0.00 0.00 0.00 56 1004.6
20260509164300 67 302 1.0 1.0 0.00 0.00 0.00 59 1004.6
20260509163756 68 197 2.0 2.0 0.00 0.00 0.00 59 1004.3
20260509163253 68 302 1.0 1.0 0.00 0.00 0.00 61 1004.2
20260509162752 68 322 2.0 2.0 0.00 0.00 0.00 57 1004.4
20260509162245 68 228 2.0 2.0 0.00 0.00 0.00 61 1004.2
20260509161741 67 227 1.0 2.0 0.00 0.00 0.00 60 1004.2
20260509161238 67 181 3.0 3.0 0.00 0.00 0.00 58 1004.3
20260509160733 67 236 6.0 8.0 0.00 0.00 0.00 59 1004.2
20260509160230 67 134 3.0 5.0 0.00 0.00 0.00 60 1004.1
20260509155724 68 174 2.0 3.0 0.00 0.00 0.00 61 1004.4
20260509155221 67 67 3.0 6.0 0.00 0.00 0.00 60 1004.3
20260509154717 66 139 5.0 6.0 0.00 0.00 0.00 62 1004.4
20260509154215 65 214 4.0 5.0 0.00 0.00 0.00 64 1004.7
20260509153712 64 141 5.0 6.0 0.00 0.00 0.00 63 1004.6
20260509153208 65 159 2.0 3.0 0.00 0.00 0.00 64 1004.7
20260509152704 65 233 5.0 6.0 0.00 0.00 0.00 63 1004.9
20260509152201 65 218 1.0 2.0 0.00 0.00 0.00 66 1004.7
20260509151658 65 181 3.0 6.0 0.00 0.00 0.00 64 1004.9
20260509151155 64 176 3.0 3.0 0.00 0.00 0.00 63 1004.9
20260509150653 64 271 1.0 1.0 0.00 0.00 0.00 67 1004.8
20260509150151 64 182 6.0 8.0 0.00 0.00 0.00 66 1004.9
20260509145647 63 192 2.0 2.0 0.00 0.00 0.00 69 1004.8
20260509145142 63 287 1.0 1.0 0.00 0.00 0.00 70 1005.0
20260509144639 62 186 1.0 2.0 0.00 0.00 0.00 72 1004.4
20260509144136 60 242 2.0 3.0 0.00 0.00 0.00 72 1004.6
20260509143633 61 251 1.0 2.0 0.00 0.00 0.00 73 1004.8
20260509143131 61 235 5.0 7.0 0.00 0.00 0.00 73 1004.8
20260509142626 61 216 0.0 1.0 0.00 0.00 0.00 75 1004.7
20260509142123 61 262 1.0 2.0 0.00 0.00 0.00 75 1004.8
20260509141619 60 194 3.0 5.0 0.00 0.00 0.00 75 1004.7
20260509141115 60 199 2.0 2.0 0.00 0.00 0.00 78 1005.0
20260509140612 59 141 3.0 3.0 0.00 0.00 0.00 78 1005.1
20260509140110 59 240 1.0 1.0 0.00 0.00 0.00 78 1004.8
20260509135607 58 240 1.0 1.0 0.00 0.00 0.00 80 1005.1
20260509135105 57 242 1.0 2.0 0.00 0.00 0.00 83 1005.3
20260509134601 57 195 3.0 3.0 0.00 0.00 0.00 83 1005.2
20260509134059 58 256 2.0 2.0 0.00 0.00 0.00 83 1005.3
20260509133556 56 237 1.0 1.0 0.00 0.00 0.00 86 1005.5
20260509133053 56 246 1.0 2.0 0.00 0.00 0.00 87 1005.3
20260509132551 56 238 1.0 1.0 0.00 0.00 0.00 87 1005.4
20260509132050 56 236 1.0 2.0 0.00 0.00 0.00 87 1005.6
20260509131545 55 256 2.0 2.0 0.00 0.00 0.00 89 1005.5
20260509131042 54 259 1.0 1.0 0.00 0.00 0.00 90 1005.5
20260509130537 54 262 1.0 1.0 0.00 0.00 0.00 90 1005.7
20260509130035 54 252 1.0 1.0 0.00 0.00 0.00 90 1006.0
20260509125531 54 225 0.0 1.0 0.00 0.00 0.00 90 1005.8
20260509125028 53 329 2.0 2.0 0.00 0.00 0.00 91 1005.9
20260509124524 53 238 1.0 1.0 0.00 0.00 0.00 91 1006.0
20260509124022 53 244 2.0 3.0 0.00 0.00 0.00 91 1005.7
20260509123520 53 237 1.0 1.0 0.00 0.00 0.00 92 1006.0
20260509123016 53 240 1.0 1.0 0.00 0.00 0.00 92 1005.9
20260509122512 53 186 3.0 5.0 0.00 0.00 0.00 92 1006.1
20260509122009 53 242 1.0 1.0 0.00 0.00 0.00 92 1006.4
20260509121506 52 246 1.0 1.0 0.00 0.00 0.00 92 1006.5
20260509121004 52 249 2.0 2.0 0.00 0.00 0.00 93 1006.4
20260509120502 52 169 2.0 3.0 0.00 0.00 0.00 93 1006.5
20260509120000 51 176 2.0 2.0 0.00 0.00 0.00 94 1006.6
20260509115456 51 250 1.0 2.0 0.00 0.00 0.00 95 1006.5
20260509114954 51 216 2.0 2.0 0.00 0.00 0.00 95 1006.5
20260509114452 50 258 0.0 1.0 0.00 0.00 0.00 96 1006.6
20260509113951 50 260 1.0 2.0 0.00 0.00 0.00 96 1006.5
20260509113448 50 246 1.0 1.0 0.00 0.00 0.00 97 1006.6
20260509112945 50 263 1.0 1.0 0.00 0.00 0.00 97 1006.7
20260509112443 50 239 1.0 1.0 0.00 0.00 0.00 97 1006.3
20260509111939 49 225 3.0 5.0 0.00 0.00 0.00 97 1006.3
20260509111437 49 242 1.0 1.0 0.00 0.00 0.00 97 1006.2
20260509110934 49 263 1.0 1.0 0.00 0.00 0.00 97 1006.4
20260509110429 49 263 0.0 0.0 0.00 0.00 0.00 97 1006.3
20260509105928 49 246 2.0 2.0 0.00 0.00 0.00 97 1006.2
20260509105426 49 259 0.0 1.0 0.00 0.00 0.00 97 1006.0
20260509104923 48 265 0.0 0.0 0.00 0.00 0.00 97 1006.2
20260509104420 48 268 0.0 0.0 0.00 0.00 0.00 97 1006.1
20260509103917 48 245 0.0 0.0 0.00 0.00 0.00 98 1006.3
20260509103414 48 263 0.0 0.0 0.00 0.00 0.00 97 1006.1
20260509102913 48 263 0.0 0.0 0.00 0.00 0.00 97 1006.2
20260509102410 47 256 0.0 0.0 0.00 0.00 0.00 98 1006.1
20260509101905 46 271 0.0 0.0 0.00 0.00 0.00 97 1006.3
20260509101401 45 267 0.0 0.0 0.00 0.00 0.00 97 1006.3
20260509100859 45 276 0.0 0.0 0.00 0.00 0.00 97 1006.4
20260509100356 45 276 0.0 0.0 0.00 0.00 0.00 97 1006.5
20260509095853 45 278 0.0 0.0 0.00 0.00 0.00 97 1006.2
20260509095350 46 275 0.0 0.0 0.00 0.00 0.00 97 1006.3
20260509094847 46 278 0.0 0.0 0.00 0.00 0.00 97 1006.5
20260509094344 45 268 0.0 0.0 0.00 0.00 0.00 97 1006.7
20260509093842 45 276 0.0 0.0 0.00 0.00 0.00 97 1006.7
20260509093338 45 272 0.0 0.0 0.00 0.00 0.00 97 1006.5
20260509092837 44 276 0.0 0.0 0.00 0.00 0.00 96 1006.9
20260509092334 44 284 0.0 0.0 0.00 0.00 0.00 96 1006.7
20260509091832 43 276 0.0 0.0 0.00 0.00 0.00 96 1006.8
20260509091329 43 276 0.0 0.0 0.00 0.00 0.00 96 1006.6
20260509090826 43 276 0.0 0.0 0.00 0.00 0.00 96 1006.8
20260509090323 43 276 0.0 0.0 0.00 0.00 0.00 96 1006.7
20260509085821 43 276 0.0 0.0 0.00 0.00 0.00 96 1007.0
20260509085318 43 278 0.0 0.0 0.00 0.00 0.00 96 1007.1
20260509084814 42 278 0.0 0.0 0.00 0.00 0.00 95 1006.8
20260509084311 43 278 0.0 0.0 0.00 0.00 0.00 95 1006.9
20260509083809 43 278 0.0 0.0 0.00 0.00 0.00 95 1006.9
20260509083306 43 278 0.0 0.0 0.00 0.00 0.00 95 1006.8
20260509082802 44 278 0.0 0.0 0.00 0.00 0.00 95 1006.6
20260509082259 43 276 0.0 0.0 0.00 0.00 0.00 95 1006.7
20260509081756 43 276 0.0 0.0 0.00 0.00 0.00 95 1007.0
20260509081253 44 276 0.0 0.0 0.00 0.00 0.00 95 1006.9
20260509080751 44 276 0.0 0.0 0.00 0.00 0.00 95 1006.9
20260509080249 45 270 0.0 0.0 0.00 0.00 0.00 95 1007.1
20260509075747 45 276 0.0 0.0 0.00 0.00 0.00 95 1007.0
20260509075244 44 272 0.0 0.0 0.00 0.00 0.00 95 1007.0
20260509074741 45 270 0.0 0.0 0.00 0.00 0.00 94 1007.0
20260509074239 44 278 0.0 0.0 0.00 0.00 0.00 94 1006.9
20260509073734 44 272 0.0 0.0 0.00 0.00 0.00 94 1006.9
20260509073231 43 272 0.0 0.0 0.00 0.00 0.00 94 1007.1
20260509072728 43 272 0.0 0.0 0.00 0.00 0.00 94 1007.2
20260509072225 43 272 0.0 0.0 0.00 0.00 0.00 93 1007.1
20260509071721 43 272 0.0 0.0 0.00 0.00 0.00 93 1007.4
20260509071219 43 276 0.0 0.0 0.00 0.00 0.00 93 1007.0
20260509070715 43 275 0.0 0.0 0.00 0.00 0.00 93 1007.4
20260509070212 42 272 0.0 0.0 0.00 0.00 0.00 93 1007.3
20260509065708 42 275 0.0 0.0 0.00 0.00 0.00 92 1007.4
20260509065204 41 275 0.0 0.0 0.00 0.00 0.00 92 1007.5
20260509064701 41 275 0.0 0.0 0.00 0.00 0.00 92 1007.6
20260509064159 40 276 0.0 0.0 0.00 0.00 0.00 91 1007.7
20260509063656 40 275 0.0 0.0 0.00 0.00 0.00 90 1007.7
20260509063152 40 276 0.0 0.0 0.00 0.00 0.00 89 1007.8
20260509062649 40 276 0.0 0.0 0.00 0.00 0.00 88 1007.6
20260509062146 40 276 0.0 0.0 0.00 0.00 0.00 88 1007.8
20260509061643 40 276 0.0 0.0 0.00 0.00 0.00 88 1007.9
20260509061141 39 276 0.0 0.0 0.00 0.00 0.00 86 1008.2
20260509060638 39 276 0.0 0.0 0.00 0.00 0.00 86 1008.1
20260509060134 39 276 0.0 0.0 0.00 0.00 0.00 85 1008.4
20260509055630 39 276 0.0 0.0 0.00 0.00 0.00 85 1008.4
20260509055126 39 276 0.0 0.0 0.00 0.00 0.00 85 1008.6
20260509054623 39 276 0.0 0.0 0.00 0.00 0.00 86 1008.4
20260509054120 39 276 0.0 0.0 0.00 0.00 0.00 86 1008.2
20260509053619 39 276 0.0 0.0 0.00 0.00 0.00 85 1008.7
20260509053115 39 276 0.0 0.0 0.00 0.00 0.00 85 1008.5
20260509052613 39 276 0.0 0.0 0.00 0.00 0.00 85 1008.5
20260509052111 39 276 0.0 0.0 0.00 0.00 0.00 85 1008.6
20260509051608 39 276 0.0 0.0 0.00 0.00 0.00 84 1008.5
20260509051105 39 276 0.0 0.0 0.00 0.00 0.00 83 1008.6
20260509050602 39 272 0.0 0.0 0.00 0.00 0.00 84 1008.7
20260509050058 39 272 0.0 0.0 0.00 0.00 0.00 84 1008.6
20260509045556 39 272 0.0 0.0 0.00 0.00 0.00 83 1008.7
20260509045053 39 272 0.0 0.0 0.00 0.00 0.00 81 1008.6
20260509044550 39 272 0.0 0.0 0.00 0.00 0.00 83 1008.7
20260509044048 39 272 0.0 0.0 0.00 0.00 0.00 84 1008.8
20260509043544 40 272 0.0 0.0 0.00 0.00 0.00 83 1008.8
20260509043039 40 272 0.0 0.0 0.00 0.00 0.00 84 1008.9
20260509042536 40 272 0.0 0.0 0.00 0.00 0.00 83 1008.9
20260509042032 40 272 0.0 0.0 0.00 0.00 0.00 82 1008.9
20260509041529 40 272 0.0 0.0 0.00 0.00 0.00 81 1008.8
20260509041027 41 272 0.0 0.0 0.00 0.00 0.00 82 1009.1
20260509040525 41 272 0.0 0.0 0.00 0.00 0.00 80 1008.9
20260509040021 41 272 0.0 0.0 0.00 0.00 0.00 79 1009.1
20260509035518 41 272 0.0 0.0 0.00 0.00 0.00 78 1009.0
20260509035015 41 272 0.0 0.0 0.00 0.00 0.00 78 1009.0
20260509034513 41 272 0.0 0.0 0.00 0.00 0.00 78 1008.9
20260509034010 41 272 0.0 0.0 0.00 0.00 0.00 78 1008.9
20260509033507 41 272 0.0 0.0 0.00 0.00 0.00 77 1009.2
20260509033004 41 272 0.0 0.0 0.00 0.00 0.00 76 1009.2
20260509032501 42 272 0.0 0.0 0.00 0.00 0.00 76 1008.9
20260509031958 42 272 0.0 0.0 0.00 0.00 0.00 77 1009.1
20260509031455 42 272 0.0 0.0 0.00 0.00 0.00 73 1009.0
20260509030953 42 272 0.0 0.0 0.00 0.00 0.00 72 1009.2
20260509030450 43 272 0.0 0.0 0.00 0.00 0.00 73 1009.3
20260509025947 43 272 0.0 0.0 0.00 0.00 0.00 72 1009.4
20260509025443 43 272 0.0 0.0 0.00 0.00 0.00 70 1009.4
20260509024938 44 272 0.0 0.0 0.00 0.00 0.00 68 1009.3
20260509024435 44 272 0.0 0.0 0.00 0.00 0.00 68 1009.4
20260509023932 44 272 0.0 0.0 0.00 0.00 0.00 65 1009.4
20260509023429 44 272 0.0 0.0 0.00 0.00 0.00 67 1009.4
20260509022926 44 272 0.0 0.0 0.00 0.00 0.00 66 1009.4
20260509022423 44 272 0.0 0.0 0.00 0.00 0.00 64 1009.4
20260509021920 45 272 0.0 0.0 0.00 0.00 0.00 65 1009.5
20260509021417 45 272 0.0 0.0 0.00 0.00 0.00 65 1009.2
20260509020914 46 272 0.0 0.0 0.00 0.00 0.00 64 1009.3
20260509020413 46 272 0.0 0.0 0.00 0.00 0.00 60 1009.5
20260509015909 46 272 0.0 0.0 0.00 0.00 0.00 56 1009.3
20260509015408 47 272 0.0 0.0 0.00 0.00 0.00 59 1009.3
20260509014904 48 272 0.0 0.0 0.00 0.00 0.00 54 1009.3
20260509014401 48 272 0.0 0.0 0.00 0.00 0.00 52 1009.4
20260509013857 48 272 0.0 0.0 0.00 0.00 0.00 51 1009.2
20260509013354 49 272 0.0 0.0 0.00 0.00 0.00 52 1009.3
20260509012850 50 272 0.0 0.0 0.00 0.00 0.00 51 1009.0
20260509012347 51 272 0.0 0.0 0.00 0.00 0.00 48 1009.0
20260509011844 51 272 0.0 0.0 0.00 0.00 0.00 45 1008.9
20260509011342 52 272 0.0 0.0 0.00 0.00 0.00 45 1009.0
20260509010839 53 272 0.0 0.0 0.00 0.00 0.00 42 1008.8
20260509010337 54 272 0.0 0.0 0.00 0.00 0.00 43 1008.7
20260509005833 55 270 0.0 0.0 0.00 0.00 0.00 40 1009.0
20260509005331 55 272 0.0 0.0 0.00 0.00 0.00 38 1008.7
20260509004826 56 270 0.0 1.0 0.00 0.00 0.00 40 1008.5